• Em Portugal
  • Lista de países
  • Para 7 dias
  • Temperatura da água
  • Mapas de satélite
  • Mapa do tempo
  • Widgets de tempo
  • user-avatar
    Iniciar Sessão

    Previsão horária em Gaziantep

    Hoje, 18 Junho, Segunda-feira

    Tempo Temperatura Precipitação Vento Pressão Humidade
    00:00 +18°C° 0 mm 4 m/s 668 mmHg 72%
    01:00 +18°C° 0 mm 4 m/s 668 mmHg 73%
    02:00 +18°C° 0 mm 4 m/s 668 mmHg 75%
    03:00 +18°C° 0 mm 3 m/s 668 mmHg 75%
    04:00 +17°C° 0 mm 3 m/s 668 mmHg 75%
    05:00 +17°C° 0 mm 3 m/s 668 mmHg 76%
    06:00 +19°C° 0 mm 3 m/s 668 mmHg 68%
    07:00 +20°C° 0 mm 3 m/s 668 mmHg 60%
    08:00 +22°C° 0 mm 3 m/s 669 mmHg 52%
    09:00 +24°C° 0 mm 3 m/s 669 mmHg 47%
    10:00 +26°C° 0 mm 4 m/s 669 mmHg 42%
    11:00 +27°C° 0 mm 4 m/s 669 mmHg 37%
    12:00 +27°C° 0,1 mm 4 m/s 669 mmHg 36%
    13:00 +28°C° 0,1 mm 5 m/s 669 mmHg 35%
    14:00 +29°C° 0,1 mm 6 m/s 669 mmHg 34%
    15:00 +28°C° 0 mm 6 m/s 669 mmHg 38%
    16:00 +27°C° 0 mm 6 m/s 668 mmHg 41%
    17:00 +26°C° 0 mm 7 m/s 668 mmHg 44%
    18:00 +24°C° 0 mm 6 m/s 668 mmHg 50%
    19:00 +22°C° 0 mm 5 m/s 668 mmHg 57%
    20:00 +21°C° 0 mm 5 m/s 668 mmHg 63%
    21:00 +20°C° 0 mm 5 m/s 668 mmHg 65%
    22:00 +20°C° 0 mm 4 m/s 668 mmHg 68%
    23:00 +19°C° 0 mm 4 m/s 668 mmHg 71%

    Amanhã, 19 Junho, Terça-feira

    Tempo Temperatura Precipitação Vento Pressão Humidade
    00:00 +19°C° 0 mm 4 m/s 668 mmHg 73%
    01:00 +18°C° 0 mm 3 m/s 668 mmHg 74%
    02:00 +18°C° 0 mm 3 m/s 668 mmHg 76%
    03:00 +18°C° 0 mm 3 m/s 668 mmHg 77%
    04:00 +18°C° 0 mm 3 m/s 668 mmHg 77%
    05:00 +18°C° 0 mm 3 m/s 668 mmHg 77%
    06:00 +19°C° 0 mm 3 m/s 669 mmHg 69%
    07:00 +21°C° 0 mm 3 m/s 669 mmHg 61%
    08:00 +24°C° 0 mm 3 m/s 670 mmHg 53%
    09:00 +25°C° 0 mm 2 m/s 670 mmHg 48%
    10:00 +27°C° 0 mm 2 m/s 671 mmHg 42%
    11:00 +28°C° 0 mm 2 m/s 671 mmHg 37%
    12:00 +29°C° 0 mm 2 m/s 671 mmHg 35%
    13:00 +29°C° 0 mm 3 m/s 671 mmHg 33%
    14:00 +30°C° 0 mm 3 m/s 671 mmHg 32%
    15:00 +29°C° 0,2 mm 4 m/s 670 mmHg 36%
    16:00 +29°C° 0,2 mm 5 m/s 670 mmHg 39%
    17:00 +28°C° 0,2 mm 6 m/s 670 mmHg 43%
    18:00 +26°C° 0 mm 5 m/s 670 mmHg 50%
    19:00 +25°C° 0 mm 5 m/s 670 mmHg 56%
    20:00 +22°C° 0 mm 4 m/s 670 mmHg 63%
    21:00 +22°C° 0 mm 4 m/s 670 mmHg 66%
    22:00 +21°C° 0 mm 4 m/s 670 mmHg 69%
    23:00 +20°C° 0 mm 3 m/s 670 mmHg 72%

    Depois de amanhã, 20 Junho, Quarta-feira

    Tempo Temperatura Precipitação Vento Pressão Humidade
    00:00 +20°C° 0 mm 3 m/s 670 mmHg 74%
    01:00 +19°C° 0 mm 3 m/s 670 mmHg 76%
    02:00 +19°C° 0 mm 3 m/s 670 mmHg 78%
    03:00 +19°C° 0 mm 3 m/s 670 mmHg 79%
    04:00 +18°C° 0 mm 2 m/s 670 mmHg 80%
    05:00 +18°C° 0 mm 2 m/s 670 mmHg 81%
    06:00 +20°C° 0 mm 2 m/s 670 mmHg 72%
    07:00 +21°C° 0 mm 3 m/s 671 mmHg 64%
    08:00 +24°C° 0 mm 3 m/s 671 mmHg 55%
    09:00 +25°C° 0 mm 3 m/s 672 mmHg 49%
    10:00 +26°C° 0 mm 3 m/s 672 mmHg 42%
    11:00 +28°C° 0 mm 4 m/s 672 mmHg 36%
    12:00 +28°C° 0 mm 4 m/s 672 mmHg 34%
    13:00 +29°C° 0 mm 5 m/s 672 mmHg 33%
    14:00 +30°C° 0 mm 5 m/s 672 mmHg 31%
    15:00 +29°C° 0 mm 6 m/s 672 mmHg 33%
    16:00 +28°C° 0 mm 6 m/s 672 mmHg 35%
    17:00 +28°C° 0 mm 6 m/s 671 mmHg 38%
    18:00 +26°C° 0 mm 5 m/s 671 mmHg 44%
    19:00 +25°C° 0 mm 5 m/s 671 mmHg 51%
    20:00 +22°C° 0 mm 4 m/s 671 mmHg 57%
    21:00 +21°C° 0 mm 4 m/s 671 mmHg 61%
    22:00 +21°C° 0 mm 4 m/s 671 mmHg 64%
    23:00 +20°C° 0 mm 3 m/s 671 mmHg 68%

    21 Junho, Quinta-feira

    Tempo Temperatura Precipitação Vento Pressão Humidade
    00:00 +19°C° 0 mm 3 m/s 671 mmHg 70%
    01:00 +19°C° 0 mm 3 m/s 671 mmHg 72%
    02:00 +19°C° 0 mm 3 m/s 670 mmHg 74%
    03:00 +19°C° 0 mm 3 m/s 670 mmHg 76%
    04:00 +19°C° 0 mm 3 m/s 670 mmHg 77%
    05:00 +18°C° 0 mm 3 m/s 670 mmHg 78%
    06:00 +20°C° 0 mm 3 m/s 671 mmHg 71%
    07:00 +22°C° 0 mm 3 m/s 671 mmHg 63%
    08:00 +24°C° 0 mm 3 m/s 672 mmHg 56%
    09:00 +26°C° 0 mm 3 m/s 672 mmHg 50%
    10:00 +27°C° 0 mm 3 m/s 672 mmHg 45%
    11:00 +28°C° 0 mm 3 m/s 672 mmHg 39%
    12:00 +29°C° 0 mm 4 m/s 672 mmHg 38%
    13:00 +30°C° 0 mm 4 m/s 672 mmHg 36%
    14:00 +30°C° 0 mm 5 m/s 672 mmHg 34%
    15:00 +29°C° 0 mm 5 m/s 671 mmHg 38%
    16:00 +28°C° 0 mm 6 m/s 671 mmHg 42%
    17:00 +27°C° 0 mm 7 m/s 671 mmHg 46%
    18:00 +26°C° 0 mm 6 m/s 671 mmHg 52%
    19:00 +23°C° 0 mm 6 m/s 671 mmHg 59%
    20:00 +22°C° 0 mm 5 m/s 671 mmHg 65%
    21:00 +21°C° 0 mm 5 m/s 670 mmHg 68%
    22:00 +20°C° 0 mm 5 m/s 670 mmHg 70%
    23:00 +20°C° 0 mm 4 m/s 670 mmHg 73%

    22 Junho, Sexta-feira

    Tempo Temperatura Precipitação Vento Pressão Humidade
    00:00 +20°C° 0 mm 4 m/s 670 mmHg 74%
    01:00 +19°C° 0 mm 4 m/s 670 mmHg 75%
    02:00 +19°C° 0 mm 4 m/s 669 mmHg 77%
    03:00 +19°C° 0 mm 4 m/s 669 mmHg 77%
    04:00 +19°C° 0 mm 4 m/s 669 mmHg 78%
    05:00 +19°C° 0 mm 4 m/s 669 mmHg 79%
    06:00 +20°C° 0 mm 4 m/s 669 mmHg 71%
    07:00 +22°C° 0 mm 4 m/s 670 mmHg 64%
    08:00 +23°C° 0 mm 4 m/s 670 mmHg 57%
    09:00 +26°C° 0 mm 4 m/s 670 mmHg 51%
    10:00 +27°C° 0 mm 4 m/s 670 mmHg 46%
    11:00 +29°C° 0 mm 4 m/s 671 mmHg 41%
    12:00 +29°C° 0 mm 4 m/s 671 mmHg 39%
    13:00 +30°C° 0 mm 5 m/s 670 mmHg 38%
    14:00 +30°C° 0 mm 5 m/s 670 mmHg 37%
    15:00 +29°C° 0 mm 5 m/s 670 mmHg 41%
    16:00 +28°C° 0 mm 6 m/s 670 mmHg 45%
    17:00 +27°C° 0 mm 6 m/s 670 mmHg 49%
    18:00 +26°C° 0 mm 6 m/s 670 mmHg 54%
    19:00 +24°C° 0 mm 6 m/s 670 mmHg 60%
    20:00 +22°C° 0 mm 5 m/s 670 mmHg 66%
    21:00 +21°C° 0 mm 5 m/s 669 mmHg 68%
    22:00 +21°C° 0 mm 5 m/s 669 mmHg 70%
    23:00 +20°C° 0 mm 4 m/s 669 mmHg 73%

    23 Junho, Sábado

    Tempo Temperatura Precipitação Vento Pressão Humidade
    00:00 +20°C° 0 mm 4 m/s 669 mmHg 74%
    01:00 +20°C° 0 mm 4 m/s 669 mmHg 75%
    02:00 +19°C° 0 mm 4 m/s 669 mmHg 76%
    03:00 +19°C° 0 mm 4 m/s 669 mmHg 77%
    04:00 +19°C° 0 mm 3 m/s 669 mmHg 77%
    05:00 +19°C° 0 mm 3 m/s 669 mmHg 78%
    06:00 +21°C° 0 mm 3 m/s 669 mmHg 69%
    07:00 +22°C° 0 mm 3 m/s 670 mmHg 61%
    08:00 +25°C° 0 mm 4 m/s 670 mmHg 53%
    09:00 +27°C° 0 mm 3 m/s 670 mmHg 47%
    10:00 +28°C° 0 mm 3 m/s 670 mmHg 41%
    11:00 +30°C° 0 mm 3 m/s 671 mmHg 36%
    12:00 +31°C° 0 mm 3 m/s 671 mmHg 34%
    13:00 +31°C° 0 mm 3 m/s 671 mmHg 33%
    14:00 +33°C° 0 mm 3 m/s 670 mmHg 31%
    15:00 +32°C° 0 mm 4 m/s 670 mmHg 34%
    16:00 +32°C° 0 mm 5 m/s 670 mmHg 38%
    17:00 +30°C° 0 mm 5 m/s 670 mmHg 41%
    18:00 +28°C° 0 mm 5 m/s 670 mmHg 48%
    19:00 +27°C° 0 mm 5 m/s 670 mmHg 55%
    20:00 +25°C° 0 mm 4 m/s 670 mmHg 63%
    21:00 +25°C° 0 mm 4 m/s 670 mmHg 65%
    22:00 +23°C° 0 mm 4 m/s 670 mmHg 68%
    23:00 +22°C° 0 mm 4 m/s 670 mmHg 71%
    Mostrar mais